DW9433 Weather Reports


Display with metric or nautical units.
time (UTC)temp
F
wind
direction
speed
MPH
gust
MPH
rain 1hr
in
rain 24hr
in
rain mn
in
humidity
%
barometer
mb
20260507123052 52 26 0.0 0.0 0.00 0.39 0.00 95 1017.1
20260507121552 51 26 0.0 0.0 0.00 0.39 0.00 96 1016.9
20260507120051 50 26 0.0 0.0 0.00 0.39 0.00 97 1016.4
20260507114604 49 26 0.0 0.0 0.00 0.39 0.00 96 1016.4
20260507113103 48 26 0.0 0.0 0.00 0.39 0.00 95 1016.2
20260507111546 48 26 0.0 0.0 0.00 0.39 0.00 95 1016.2
20260507110042 48 26 0.0 0.0 0.00 0.39 0.00 94 1016.2
20260507104543 49 26 0.0 0.0 0.00 0.60 0.00 95 1015.9
20260507103048 49 26 0.0 0.0 0.00 0.60 0.00 95 1016.2
20260507101537 49 26 0.0 0.0 0.00 0.60 0.00 94 1016.0
20260507100035 49 26 0.0 0.0 0.00 0.60 0.00 94 1016.0
20260507094535 49 26 0.0 0.0 0.00 0.72 0.00 94 1016.0
20260507093035 50 26 0.0 0.0 0.00 0.72 0.00 94 1015.9
20260507091535 50 26 0.0 0.0 0.00 0.72 0.00 94 1015.6
20260507090028 51 26 0.0 0.0 0.00 0.72 0.00 94 1015.6
20260507084539 51 26 0.0 0.0 0.00 1.12 0.00 94 1015.5
20260507083025 51 26 0.0 0.0 0.00 1.12 0.00 94 1015.2
20260507081534 52 26 0.0 0.0 0.00 1.12 0.00 94 1015.2
20260507080024 52 26 0.0 0.0 0.00 1.12 0.00 94 1015.5
20260507074523 52 26 0.0 0.0 0.00 1.23 0.00 94 1015.5
20260507073021 52 26 0.0 0.0 0.00 1.23 0.00 93 1015.6
20260507071520 52 26 0.0 0.0 0.00 1.23 0.00 94 1015.6
20260507070018 52 26 0.0 0.0 0.00 1.23 0.00 94 1015.6
20260507064518 52 26 0.0 0.0 0.00 1.48 0.00 94 1015.7
20260507063023 52 26 0.0 0.0 0.00 1.48 0.00 94 1015.4
20260507061517 52 26 0.0 0.0 0.00 1.48 0.00 93 1015.8
20260507060015 53 26 0.0 0.0 0.00 1.48 0.00 93 1015.6
20260507054514 53 26 0.0 0.0 0.00 1.48 0.00 94 1015.4
20260507053014 53 26 0.0 0.0 0.00 1.48 0.00 94 1015.4
20260507051512 53 26 0.0 0.0 0.00 1.48 0.00 94 1015.4
20260507050014 53 26 0.0 0.0 0.00 1.48 0.00 94 1015.0
20260507044509 53 26 0.0 0.0 0.00 1.48 1.48 94 1015.0
20260507043019 53 26 0.0 0.0 0.00 1.48 1.48 94 1015.4
20260507041507 53 26 0.0 0.0 0.00 1.48 1.48 94 1015.3
20260507040007 53 26 0.0 0.0 0.00 1.48 1.48 94 1015.3
20260507034510 53 26 0.0 0.0 0.00 1.48 1.48 94 1015.8
20260507033006 53 26 0.0 0.0 0.00 1.48 1.48 94 1015.9
20260507031504 53 26 0.0 0.0 0.00 1.48 1.48 93 1015.5
20260507030007 53 26 0.0 0.0 0.00 1.48 1.48 93 1015.2
20260507024502 53 26 0.0 0.0 0.00 1.48 1.48 93 1015.3
20260507023006 53 26 0.0 0.0 0.00 1.48 1.48 93 1014.8
20260507021501 53 26 0.0 0.0 0.00 1.48 1.48 93 1014.8
20260507020105 53 26 0.0 0.0 0.00 1.48 1.48 93 1015.0
20260507014602 53 34 0.0 0.0 0.00 1.48 1.48 93 1014.5
20260507013100 53 28 0.0 2.0 0.00 1.48 1.48 93 1014.4
20260507011601 53 28 0.0 0.0 0.00 1.48 1.48 94 1014.0
20260507010059 53 12 0.0 0.0 0.00 1.48 1.48 93 1013.7
20260507004558 53 355 0.0 0.0 0.00 1.48 1.48 93 1014.6
20260507003115 54 12 0.0 0.0 0.00 1.48 1.48 93 1014.5
20260507001614 54 12 0.0 0.0 0.00 1.48 1.48 93 1014.6
20260507000057 54 360 0.0 0.0 0.00 1.48 1.48 93 1014.6
20260506234558 54 21 0.0 4.0 0.00 1.48 1.48 93 1014.3
20260506233058 54 19 0.0 0.0 0.00 1.48 1.48 93 1014.7
20260506231605 54 17 0.0 0.0 0.00 1.48 1.48 93 1014.1
20260506230111 54 21 0.0 0.0 0.00 1.48 1.48 93 1014.2
20260506224555 54 21 0.0 0.0 0.00 1.48 1.48 93 1013.8
20260506223057 54 19 0.0 0.0 0.00 1.48 1.48 92 1013.5
20260506221607 54 20 0.0 3.0 0.01 1.48 1.48 93 1012.9
20260506220055 54 38 0.0 0.0 0.01 1.48 1.48 93 1012.8
20260506214654 55 17 0.0 0.0 0.02 1.49 1.48 93 1013.1
20260506213055 55 24 0.0 0.0 0.03 1.49 1.48 93 1013.2
20260506211554 54 5 0.0 0.0 0.04 1.48 1.47 93 1013.9
20260506210057 54 5 0.0 0.0 0.07 1.48 1.47 93 1014.6
20260506204555 54 5 0.0 0.0 0.07 1.47 1.46 92 1014.2
20260506203102 54 5 0.0 0.0 0.06 1.46 1.45 92 1014.0
20260506201550 54 5 0.0 0.0 0.04 1.44 1.43 91 1014.1
20260506200055 55 26 0.0 0.0 0.01 1.41 1.40 91 1014.5
20260506194550 55 26 0.0 0.0 0.00 1.40 1.39 92 1015.0
20260506193051 55 26 0.0 0.0 0.00 1.40 1.39 92 1014.9
20260506191548 55 26 0.0 0.0 0.00 1.40 1.39 93 1015.0
20260506190051 54 28 0.0 0.0 0.00 1.40 1.39 93 1015.2
20260506184550 54 28 0.0 0.0 0.00 1.40 1.39 93 1014.6
20260506183047 54 26 0.0 0.0 0.00 1.40 1.39 94 1014.5
20260506181553 54 17 0.0 2.0 0.00 1.40 1.39 94 1014.3
20260506180048 54 35 0.0 4.0 0.00 1.40 1.39 95 1014.3
20260506174545 54 55 0.0 0.0 0.00 1.40 1.39 96 1014.3
20260506173048 52 23 0.0 0.0 0.02 1.40 1.39 95 1014.5
20260506171544 52 9 0.0 0.0 0.02 1.40 1.39 96 1014.7
20260506170052 52 9 0.0 0.0 0.05 1.40 1.39 95 1014.6
20260506164555 52 5 0.0 0.0 0.05 1.51 1.39 96 1014.6
20260506163046 52 360 0.0 0.0 0.05 1.49 1.37 96 1014.5
20260506161538 51 36 0.0 0.0 0.08 1.49 1.37 96 1014.3
20260506160038 51 350 0.0 2.0 0.07 1.46 1.34 95 1014.0
20260506154539 51 347 0.0 0.0 0.09 2.04 1.34 95 1013.9
20260506153036 52 347 0.0 0.0 0.10 2.02 1.32 95 1013.6
20260506151538 52 346 0.0 0.0 0.12 1.99 1.29 95 1013.5
20260506150039 52 52 0.0 0.0 0.14 1.97 1.27 96 1014.0
20260506144533 51 53 0.0 0.0 0.15 2.22 1.25 95 1014.3
20260506143038 51 53 0.0 0.0 0.13 2.19 1.22 95 1013.1
20260506141540 52 41 0.0 0.0 0.08 2.14 1.17 95 1013.2
20260506140033 52 73 0.0 0.0 0.04 2.10 1.12 95 1012.9
20260506134529 51 22 0.0 5.0 0.01 2.19 1.10 95 1013.2
20260506133027 52 5 0.0 0.0 0.00 2.18 1.09 95 1013.0
20260506131527 52 360 0.0 0.0 0.00 2.18 1.09 95 1012.7
20260506130024 52 5 0.0 0.0 0.00 2.18 1.09 95 1012.4
20260506124523 52 27 0.0 0.0 0.00 2.18 1.09 95 1011.8